Time,TemperatureF,DewpointF,PressureIn,WindDirection,WindDirectionDegrees,WindSpeedMPH,WindSpeedGustMPH,Humidity,HourlyPrecipIn,Conditions,Clouds,dailyrainin,SoftwareType,DateUTC
2013-07-20 00:00:00,68.6,61.8,29.84,ENE,65,0.0,1.0,79,0.00,,CLR,0.00,VWS V14.01,2013-07-20 05:00:00,
2013-07-20 00:02:00,68.5,62.1,29.84,ENE,65,0.0,0.0,80,0.00,,CLR,0.00,VWS V14.01,2013-07-20 05:02:00,
2013-07-20 00:07:00,68.2,62.2,29.84,ENE,65,0.0,0.0,81,0.00,,CLR,0.00,VWS V14.01,2013-07-20 05:07:00,
2013-07-20 00:12:00,67.9,62.2,29.84,ENE,65,0.0,0.0,82,0.00,,CLR,0.00,VWS V14.01,2013-07-20 05:12:00,
2013-07-20 00:16:00,68.0,62.0,29.84,ENE,65,0.0,1.0,81,0.00,,CLR,0.00,VWS V14.01,2013-07-20 05:16:00,
2013-07-20 00:21:00,67.8,62.1,29.85,ENE,65,0.0,1.0,82,0.00,,CLR,0.00,VWS V14.01,2013-07-20 05:21:00,
2013-07-20 00:26:00,67.9,62.2,29.85,WNW,300,0.0,1.0,82,0.00,,CLR,0.00,VWS V14.01,2013-07-20 05:26:00,
2013-07-20 00:30:00,67.9,62.2,29.85,WNW,301,0.0,1.0,82,0.00,,CLR,0.00,VWS V14.01,2013-07-20 05:30:00,
2013-07-20 00:31:00,67.9,62.2,29.85,WNW,301,0.0,0.0,82,0.00,,CLR,0.00,VWS V14.01,2013-07-20 05:31:00,
2013-07-20 00:36:00,67.9,62.5,29.85,WNW,301,0.0,0.0,83,0.00,,CLR,0.00,VWS V14.01,2013-07-20 05:36:00,
2013-07-20 00:41:00,67.7,62.4,29.85,WNW,301,0.0,0.0,83,0.00,,CLR,0.00,VWS V14.01,2013-07-20 05:41:00,
2013-07-20 00:46:00,67.7,62.7,29.85,WNW,301,0.0,0.0,84,0.00,,CLR,0.00,VWS V14.01,2013-07-20 05:46:00,
2013-07-20 00:51:00,67.8,62.8,29.85,WNW,301,0.0,0.0,84,0.00,,CLR,0.00,VWS V14.01,2013-07-20 05:51:00,
2013-07-20 00:56:00,68.1,62.8,29.85,WNW,301,0.0,0.0,83,0.00,,CLR,0.00,VWS V14.01,2013-07-20 05:56:00,
2013-07-20 01:00:00,68.3,62.9,29.85,WNW,301,0.0,0.0,83,0.00,,CLR,0.00,VWS V14.01,2013-07-20 06:00:00,
2013-07-20 01:01:00,68.4,63.0,29.85,WNW,301,0.0,0.0,83,0.00,,CLR,0.00,VWS V14.01,2013-07-20 06:01:00,
2013-07-20 01:06:00,68.5,63.1,29.85,WNW,301,0.0,0.0,83,0.00,,CLR,0.00,VWS V14.01,2013-07-20 06:06:00,
2013-07-20 01:11:00,68.4,63.0,29.85,WNW,301,0.0,0.0,83,0.00,,CLR,0.00,VWS V14.01,2013-07-20 06:11:00,
2013-07-20 01:16:00,68.3,62.6,29.85,WNW,301,0.0,0.0,82,0.00,,CLR,0.00,VWS V14.01,2013-07-20 06:16:00,
2013-07-20 01:21:00,68.2,62.8,29.85,WNW,301,0.0,0.0,83,0.00,,CLR,0.00,VWS V14.01,2013-07-20 06:21:00,
2013-07-20 01:26:00,68.0,62.7,29.85,WNW,301,0.0,0.0,83,0.00,,CLR,0.00,VWS V14.01,2013-07-20 06:26:00,
2013-07-20 01:30:00,67.9,62.5,29.85,WNW,301,0.0,0.0,83,0.00,,CLR,0.00,VWS V14.01,2013-07-20 06:30:00,
2013-07-20 01:31:00,67.8,62.5,29.85,WNW,297,0.0,0.0,83,0.00,,CLR,0.00,VWS V14.01,2013-07-20 06:31:00,
2013-07-20 01:36:00,67.6,62.3,29.85,West,277,0.0,1.0,83,0.00,,CLR,0.00,VWS V14.01,2013-07-20 06:36:00,
2013-07-20 01:41:00,67.6,62.3,29.85,West,277,0.0,1.0,83,0.00,,CLR,0.00,VWS V14.01,2013-07-20 06:41:00,
2013-07-20 01:46:00,67.4,62.4,29.85,West,277,0.0,1.0,84,0.00,,CLR,0.00,VWS V14.01,2013-07-20 06:46:00,
2013-07-20 01:51:00,67.3,62.6,29.85,West,276,0.0,1.0,85,0.00,,CLR,0.00,VWS V14.01,2013-07-20 06:51:00,
2013-07-20 01:56:00,67.1,62.5,29.85,West,276,0.0,1.0,85,0.00,,CLR,0.00,VWS V14.01,2013-07-20 06:56:00,
2013-07-20 02:00:00,67.0,62.3,29.85,West,276,0.0,1.0,85,0.00,,CLR,0.00,VWS V14.01,2013-07-20 07:00:00,
2013-07-20 02:01:00,67.0,62.3,29.85,West,276,0.0,0.0,85,0.00,,CLR,0.00,VWS V14.01,2013-07-20 07:01:00,
2013-07-20 02:06:00,66.7,62.0,29.85,West,276,0.0,0.0,85,0.00,,CLR,0.00,VWS V14.01,2013-07-20 07:06:00,
2013-07-20 02:11:00,67.1,62.5,29.85,West,277,1.0,1.0,85,0.00,,CLR,0.00,VWS V14.01,2013-07-20 07:11:00,
2013-07-20 02:16:00,66.9,61.6,29.85,WSW,249,1.0,1.0,83,0.00,,CLR,0.00,VWS V14.01,2013-07-20 07:16:00,
2013-07-20 02:21:00,65.9,60.9,29.84,WSW,250,0.0,1.0,84,0.00,,CLR,0.00,VWS V14.01,2013-07-20 07:21:00,
2013-07-20 02:26:00,65.0,60.7,29.84,WSW,251,0.0,1.0,86,0.00,,CLR,0.00,VWS V14.01,2013-07-20 07:26:00,
2013-07-20 02:30:00,64.7,60.4,29.84,West,276,0.0,1.0,86,0.00,,CLR,0.00,VWS V14.01,2013-07-20 07:30:00,
2013-07-20 02:31:00,64.6,60.3,29.84,West,276,0.0,0.0,86,0.00,,CLR,0.00,VWS V14.01,2013-07-20 07:31:00,
2013-07-20 02:36:00,64.3,60.3,29.83,West,274,0.0,0.0,87,0.00,,CLR,0.00,VWS V14.01,2013-07-20 07:36:00,
2013-07-20 02:41:00,64.3,60.3,29.84,West,276,0.0,2.0,87,0.00,,CLR,0.00,VWS V14.01,2013-07-20 07:41:00,
2013-07-20 02:46:00,64.2,59.9,29.84,West,276,0.0,2.0,86,0.00,,CLR,0.00,VWS V14.01,2013-07-20 07:46:00,
2013-07-20 02:51:00,64.0,60.1,29.84,West,276,0.0,2.0,87,0.00,,CLR,0.00,VWS V14.01,2013-07-20 07:51:00,
2013-07-20 02:56:00,63.9,60.3,29.83,West,276,0.0,2.0,88,0.00,,CLR,0.00,VWS V14.01,2013-07-20 07:56:00,
2013-07-20 03:00:00,63.7,60.4,29.83,West,276,0.0,2.0,89,0.00,,CLR,0.00,VWS V14.01,2013-07-20 08:00:00,
2013-07-20 03:01:00,63.7,60.4,29.83,West,274,0.0,0.0,89,0.00,,CLR,0.00,VWS V14.01,2013-07-20 08:01:00,
2013-07-20 03:06:00,64.0,60.1,29.83,West,264,0.0,1.0,87,0.00,,CLR,0.00,VWS V14.01,2013-07-20 08:06:00,
2013-07-20 03:11:00,64.2,60.3,29.83,West,278,0.0,2.0,87,0.00,,CLR,0.00,VWS V14.01,2013-07-20 08:11:00,
2013-07-20 03:16:00,64.3,60.0,29.83,West,280,0.0,2.0,86,0.00,,CLR,0.00,VWS V14.01,2013-07-20 08:16:00,
2013-07-20 03:21:00,64.5,60.2,29.83,West,280,1.0,2.0,86,0.00,,CLR,0.00,VWS V14.01,2013-07-20 08:21:00,
2013-07-20 03:26:00,64.6,60.0,29.83,West,276,1.0,2.0,85,0.00,,CLR,0.00,VWS V14.01,2013-07-20 08:26:00,
2013-07-20 03:30:00,64.3,60.0,29.83,West,276,0.0,2.0,86,0.00,,CLR,0.00,VWS V14.01,2013-07-20 08:30:00,
2013-07-20 03:31:00,64.3,60.0,29.83,West,277,0.0,0.0,86,0.00,,CLR,0.00,VWS V14.01,2013-07-20 08:31:00,
2013-07-20 03:36:00,64.2,60.3,29.83,West,276,1.0,1.0,87,0.00,,CLR,0.00,VWS V14.01,2013-07-20 08:36:00,
2013-07-20 03:41:00,64.4,60.5,29.83,West,271,1.0,2.0,87,0.00,,CLR,0.00,VWS V14.01,2013-07-20 08:41:00,
2013-07-20 03:46:00,64.4,60.1,29.83,WNW,283,0.0,2.0,86,0.00,,CLR,0.00,VWS V14.01,2013-07-20 08:46:00,
2013-07-20 03:51:00,64.3,60.0,29.83,West,272,1.0,2.0,86,0.00,,CLR,0.00,VWS V14.01,2013-07-20 08:51:00,
2013-07-20 03:56:00,64.3,60.0,29.83,West,276,2.0,2.0,86,0.00,,CLR,0.00,VWS V14.01,2013-07-20 08:56:00,
2013-07-20 04:00:00,64.2,59.9,29.83,West,276,0.0,2.0,86,0.00,,CLR,0.00,VWS V14.01,2013-07-20 09:00:00,
2013-07-20 04:01:00,64.2,59.9,29.83,West,276,0.0,0.0,86,0.00,,CLR,0.00,VWS V14.01,2013-07-20 09:01:00,
2013-07-20 04:06:00,64.4,60.1,29.83,West,276,0.0,1.0,86,0.00,,CLR,0.00,VWS V14.01,2013-07-20 09:06:00,
2013-07-20 04:11:00,64.1,60.2,29.83,West,276,0.0,1.0,87,0.00,,CLR,0.00,VWS V14.01,2013-07-20 09:11:00,
2013-07-20 04:16:00,64.1,60.2,29.83,West,277,1.0,2.0,87,0.00,,CLR,0.00,VWS V14.01,2013-07-20 09:16:00,
2013-07-20 04:21:00,64.1,60.2,29.83,West,280,1.0,2.0,87,0.00,,CLR,0.00,VWS V14.01,2013-07-20 09:21:00,
2013-07-20 04:26:00,63.9,60.0,29.83,West,281,1.0,2.0,87,0.00,,CLR,0.00,VWS V14.01,2013-07-20 09:26:00,
2013-07-20 04:30:00,63.7,59.8,29.83,West,277,0.0,2.0,87,0.00,,CLR,0.00,VWS V14.01,2013-07-20 09:30:00,
2013-07-20 04:31:00,63.6,59.7,29.83,West,277,1.0,1.0,87,0.00,,CLR,0.00,VWS V14.01,2013-07-20 09:31:00,
2013-07-20 04:36:00,63.5,59.9,29.83,West,277,0.0,1.0,88,0.00,,CLR,0.00,VWS V14.01,2013-07-20 09:36:00,
2013-07-20 04:41:00,63.3,59.7,29.83,West,262,0.0,1.0,88,0.00,,CLR,0.00,VWS V14.01,2013-07-20 09:41:00,
2013-07-20 04:46:00,63.1,59.5,29.83,West,276,0.0,1.0,88,0.00,,CLR,0.00,VWS V14.01,2013-07-20 09:46:00,
2013-07-20 04:51:00,62.9,59.3,29.83,West,280,1.0,1.0,88,0.00,,CLR,0.00,VWS V14.01,2013-07-20 09:51:00,
2013-07-20 04:56:00,62.8,59.5,29.82,West,278,1.0,2.0,89,0.00,,CLR,0.00,VWS V14.01,2013-07-20 09:56:00,
2013-07-20 05:00:00,62.9,59.6,29.82,West,273,0.0,2.0,89,0.00,,CLR,0.00,VWS V14.01,2013-07-20 10:00:00,
2013-07-20 05:01:00,62.9,59.6,29.82,West,272,0.0,0.0,89,0.00,,CLR,0.00,VWS V14.01,2013-07-20 10:01:00,
2013-07-20 05:06:00,62.9,59.6,29.82,West,272,0.0,0.0,89,0.00,,CLR,0.00,VWS V14.01,2013-07-20 10:06:00,
2013-07-20 05:11:00,62.6,59.3,29.82,West,272,0.0,0.0,89,0.00,,CLR,0.00,VWS V14.01,2013-07-20 10:11:00,
2013-07-20 05:16:00,62.4,59.4,29.82,West,272,0.0,0.0,90,0.00,,CLR,0.00,VWS V14.01,2013-07-20 10:16:00,
2013-07-20 05:21:00,62.4,59.1,29.81,West,272,0.0,0.0,89,0.00,,CLR,0.00,VWS V14.01,2013-07-20 10:21:00,
2013-07-20 05:26:00,62.4,59.4,29.81,West,272,0.0,0.0,90,0.00,,CLR,0.00,VWS V14.01,2013-07-20 10:26:00,
2013-07-20 05:30:00,62.5,59.8,29.82,West,271,0.0,1.0,91,0.00,,CLR,0.00,VWS V14.01,2013-07-20 10:30:00,
2013-07-20 05:31:00,62.6,59.9,29.82,West,272,0.0,1.0,91,0.00,,CLR,0.00,VWS V14.01,2013-07-20 10:31:00,
2013-07-20 05:36:00,63.0,60.6,29.82,West,272,0.0,1.0,92,0.00,,CLR,0.00,VWS V14.01,2013-07-20 10:36:00,
2013-07-20 05:41:00,63.1,60.4,29.82,West,271,0.0,1.0,91,0.00,,CLR,0.00,VWS V14.01,2013-07-20 10:41:00,
2013-07-20 05:46:00,63.2,60.2,29.83,West,277,1.0,2.0,90,0.00,,CLR,0.00,VWS V14.01,2013-07-20 10:46:00,
2013-07-20 05:51:00,63.1,60.1,29.83,WNW,284,0.0,2.0,90,0.00,,CLR,0.00,VWS V14.01,2013-07-20 10:51:00,
2013-07-20 05:56:00,63.1,60.7,29.83,West,277,0.0,2.0,92,0.00,,CLR,0.00,VWS V14.01,2013-07-20 10:56:00,
2013-07-20 06:00:00,63.1,60.4,29.84,West,277,0.0,2.0,91,0.00,,CLR,0.00,VWS V14.01,2013-07-20 11:00:00,
2013-07-20 06:01:00,63.1,60.4,29.84,West,266,0.0,1.0,91,0.00,,CLR,0.00,VWS V14.01,2013-07-20 11:01:00,
2013-07-20 06:06:00,63.0,60.0,29.84,West,273,0.0,1.0,90,0.00,,CLR,0.00,VWS V14.01,2013-07-20 11:06:00,
2013-07-20 06:11:00,63.0,59.7,29.84,West,276,1.0,2.0,89,0.00,,CLR,0.00,VWS V14.01,2013-07-20 11:11:00,
2013-07-20 06:16:00,63.2,59.6,29.84,West,273,0.0,2.0,88,0.00,,CLR,0.00,VWS V14.01,2013-07-20 11:16:00,
2013-07-20 06:21:00,62.9,59.3,29.84,SW,233,0.0,2.0,88,0.00,,CLR,0.00,VWS V14.01,2013-07-20 11:21:00,
2013-07-20 06:26:00,62.5,59.2,29.84,SW,235,0.0,2.0,89,0.00,,CLR,0.00,VWS V14.01,2013-07-20 11:26:00,
2013-07-20 06:30:00,62.2,59.2,29.84,SW,235,0.0,2.0,90,0.00,,CLR,0.00,VWS V14.01,2013-07-20 11:30:00,
2013-07-20 06:31:00,62.2,59.2,29.84,SW,235,0.0,0.0,90,0.00,,CLR,0.00,VWS V14.01,2013-07-20 11:31:00,
2013-07-20 06:36:00,62.0,59.0,29.85,WSW,253,0.0,1.0,90,0.00,,CLR,0.00,VWS V14.01,2013-07-20 11:36:00,
2013-07-20 06:41:00,61.9,58.6,29.85,WSW,253,0.0,1.0,89,0.00,,CLR,0.00,VWS V14.01,2013-07-20 11:41:00,
2013-07-20 06:46:00,61.9,58.9,29.85,WSW,253,0.0,1.0,90,0.00,,CLR,0.00,VWS V14.01,2013-07-20 11:46:00,
2013-07-20 06:51:00,62.1,59.1,29.84,WSW,253,0.0,1.0,90,0.00,,CLR,0.00,VWS V14.01,2013-07-20 11:51:00,
2013-07-20 06:56:00,62.4,59.4,29.85,WSW,255,0.0,1.0,90,0.00,,CLR,0.00,VWS V14.01,2013-07-20 11:56:00,
2013-07-20 07:00:00,62.9,59.9,29.85,WSW,255,0.0,1.0,90,0.00,,CLR,0.00,VWS V14.01,2013-07-20 12:00:00,
2013-07-20 07:01:00,63.0,60.0,29.85,WSW,255,0.0,0.0,90,0.00,,CLR,0.00,VWS V14.01,2013-07-20 12:01:00,
2013-07-20 07:06:00,63.9,61.8,29.85,West,277,0.0,0.0,93,0.00,,CLR,0.00,VWS V14.01,2013-07-20 12:06:00,
2013-07-20 07:11:00,65.3,62.6,29.85,WNW,284,0.0,1.0,91,0.00,,CLR,0.00,VWS V14.01,2013-07-20 12:11:00,
2013-07-20 07:16:00,66.6,62.6,29.85,West,281,0.0,1.0,87,0.00,,CLR,0.00,VWS V14.01,2013-07-20 12:16:00,
2013-07-20 07:21:00,67.3,62.6,29.86,West,276,0.0,1.0,85,0.00,,CLR,0.00,VWS V14.01,2013-07-20 12:21:00,
2013-07-20 07:26:00,67.8,62.5,29.85,West,266,0.0,1.0,83,0.00,,CLR,0.00,VWS V14.01,2013-07-20 12:26:00,
2013-07-20 07:30:00,68.3,62.9,29.86,West,271,0.0,1.0,83,0.00,,CLR,0.00,VWS V14.01,2013-07-20 12:30:00,
2013-07-20 07:31:00,68.4,63.0,29.86,WNW,283,0.0,1.0,83,0.00,,CLR,0.00,VWS V14.01,2013-07-20 12:31:00,
2013-07-20 07:36:00,68.9,63.2,29.86,West,280,0.0,1.0,82,0.00,,CLR,0.00,VWS V14.01,2013-07-20 12:36:00,
2013-07-20 07:41:00,69.3,63.2,29.86,NNW,335,0.0,1.0,81,0.00,,CLR,0.00,VWS V14.01,2013-07-20 12:41:00,
2013-07-20 07:46:00,69.5,62.7,29.85,NNW,335,0.0,1.0,79,0.00,,CLR,0.00,VWS V14.01,2013-07-20 12:46:00,
2013-07-20 07:51:00,69.5,63.1,29.86,West,266,0.0,1.0,80,0.00,,CLR,0.00,VWS V14.01,2013-07-20 12:51:00,
2013-07-20 07:56:00,69.6,63.5,29.86,West,266,0.0,1.0,81,0.00,,CLR,0.00,VWS V14.01,2013-07-20 12:56:00,
2013-07-20 08:00:00,69.7,63.3,29.86,West,266,0.0,1.0,80,0.00,,CLR,0.00,VWS V14.01,2013-07-20 13:00:00,
2013-07-20 08:01:00,69.8,63.4,29.86,West,266,0.0,0.0,80,0.00,,CLR,0.00,VWS V14.01,2013-07-20 13:01:00,
2013-07-20 08:06:00,70.4,63.2,29.86,West,274,0.0,2.0,78,0.00,,CLR,0.00,VWS V14.01,2013-07-20 13:06:00,
2013-07-20 08:11:00,71.2,63.3,29.86,NNE,16,0.0,2.0,76,0.00,,CLR,0.00,VWS V14.01,2013-07-20 13:11:00,
2013-07-20 08:16:00,71.6,63.6,29.87,West,280,0.0,2.0,76,0.00,,CLR,0.00,VWS V14.01,2013-07-20 13:16:00,
2013-07-20 08:21:00,71.9,63.9,29.87,NW,315,0.0,2.0,76,0.00,,CLR,0.00,VWS V14.01,2013-07-20 13:21:00,
2013-07-20 08:26:00,72.1,63.0,29.88,WNW,293,2.0,3.0,73,0.00,,CLR,0.00,VWS V14.01,2013-07-20 13:26:00,
2013-07-20 08:30:00,72.2,63.1,29.88,WNW,295,0.0,3.0,73,0.00,,CLR,0.00,VWS V14.01,2013-07-20 13:30:00,
2013-07-20 08:31:00,72.3,63.2,29.88,WNW,283,0.0,1.0,73,0.00,,CLR,0.00,VWS V14.01,2013-07-20 13:31:00,
2013-07-20 08:36:00,72.5,63.0,29.88,NW,305,0.0,3.0,72,0.00,,CLR,0.00,VWS V14.01,2013-07-20 13:36:00,
2013-07-20 08:41:00,72.9,63.3,29.89,WNW,290,0.0,3.0,72,0.00,,CLR,0.00,VWS V14.01,2013-07-20 13:41:00,
2013-07-20 08:46:00,73.4,63.8,29.88,North,352,0.0,4.0,72,0.00,,CLR,0.00,VWS V14.01,2013-07-20 13:46:00,
2013-07-20 08:51:00,73.9,63.1,29.88,NW,309,1.0,5.0,69,0.00,,CLR,0.00,VWS V14.01,2013-07-20 13:51:00,
2013-07-20 08:56:00,74.3,63.5,29.89,NW,316,1.0,5.0,69,0.00,,CLR,0.00,VWS V14.01,2013-07-20 13:56:00,
2013-07-20 09:00:00,74.8,64.4,29.89,West,270,0.0,5.0,70,0.00,,CLR,0.00,VWS V14.01,2013-07-20 14:00:00,
2013-07-20 09:01:00,74.8,64.0,29.89,West,264,3.0,3.0,69,0.00,,CLR,0.00,VWS V14.01,2013-07-20 14:01:00,
2013-07-20 09:06:00,75.0,65.0,29.89,West,281,4.0,5.0,71,0.00,,CLR,0.00,VWS V14.01,2013-07-20 14:06:00,
2013-07-20 09:11:00,75.1,64.2,29.89,West,264,3.0,5.0,69,0.00,,CLR,0.00,VWS V14.01,2013-07-20 14:11:00,
2013-07-20 09:16:00,75.3,64.0,29.89,WNW,301,0.0,5.0,68,0.00,,CLR,0.00,VWS V14.01,2013-07-20 14:16:00,
2013-07-20 09:21:00,75.5,64.6,29.89,WNW,302,0.0,5.0,69,0.00,,CLR,0.00,VWS V14.01,2013-07-20 14:21:00,
2013-07-20 09:26:00,75.8,64.5,29.89,WNW,284,2.0,5.0,68,0.00,,CLR,0.00,VWS V14.01,2013-07-20 14:26:00,
2013-07-20 09:30:00,76.1,65.2,29.89,NW,316,1.0,5.0,69,0.00,,CLR,0.00,VWS V14.01,2013-07-20 14:30:00,
2013-07-20 09:31:00,76.1,64.4,29.89,NW,316,1.0,3.0,67,0.00,,CLR,0.00,VWS V14.01,2013-07-20 14:31:00,
2013-07-20 09:36:00,76.2,64.9,29.89,West,262,0.0,3.0,68,0.00,,CLR,0.00,VWS V14.01,2013-07-20 14:36:00,
2013-07-20 09:41:00,76.6,65.7,29.89,NW,304,0.0,4.0,69,0.00,,CLR,0.00,VWS V14.01,2013-07-20 14:41:00,
2013-07-20 09:46:00,77.1,65.3,29.89,NW,304,2.0,4.0,67,0.00,,CLR,0.00,VWS V14.01,2013-07-20 14:46:00,
2013-07-20 09:51:00,77.1,64.9,29.89,West,273,4.0,5.0,66,0.00,,CLR,0.00,VWS V14.01,2013-07-20 14:51:00,
2013-07-20 09:56:00,77.2,65.0,29.89,NW,309,1.0,5.0,66,0.00,,CLR,0.00,VWS V14.01,2013-07-20 14:56:00,
2013-07-20 10:00:00,77.5,65.3,29.89,WNW,284,2.0,6.0,66,0.00,,CLR,0.00,VWS V14.01,2013-07-20 15:00:00,
2013-07-20 10:01:00,77.5,65.3,29.89,NW,319,2.0,3.0,66,0.00,,CLR,0.00,VWS V14.01,2013-07-20 15:01:00,
2013-07-20 10:06:00,77.9,65.6,29.89,NW,309,1.0,3.0,66,0.00,,CLR,0.00,VWS V14.01,2013-07-20 15:06:00,
2013-07-20 10:11:00,78.2,65.0,29.88,North,350,0.0,3.0,64,0.00,,CLR,0.00,VWS V14.01,2013-07-20 15:11:00,
2013-07-20 10:16:00,78.4,64.8,29.88,WSW,257,2.0,4.0,63,0.00,,CLR,0.00,VWS V14.01,2013-07-20 15:16:00,
2013-07-20 10:21:00,78.6,65.0,29.88,NNE,15,1.0,4.0,63,0.00,,CLR,0.00,VWS V14.01,2013-07-20 15:21:00,
2013-07-20 10:26:00,79.1,65.9,29.87,NE,44,1.0,4.0,64,0.00,,CLR,0.00,VWS V14.01,2013-07-20 15:26:00,
2013-07-20 10:30:00,79.0,64.9,29.87,NW,314,1.0,4.0,62,0.00,,CLR,0.00,VWS V14.01,2013-07-20 15:30:00,
2013-07-20 10:31:00,79.0,64.9,29.87,West,281,0.0,1.0,62,0.00,,CLR,0.00,VWS V14.01,2013-07-20 15:31:00,
2013-07-20 10:36:00,78.7,64.6,29.86,West,270,2.0,6.0,62,0.00,,CLR,0.00,VWS V14.01,2013-07-20 15:36:00,
2013-07-20 10:41:00,78.5,64.4,29.86,West,269,5.0,6.0,62,0.00,,CLR,0.00,VWS V14.01,2013-07-20 15:41:00,
2013-07-20 10:46:00,78.6,65.0,29.86,SW,235,1.0,6.0,63,0.00,,CLR,0.00,VWS V14.01,2013-07-20 15:46:00,
2013-07-20 10:51:00,79.2,65.1,29.86,North,354,0.0,6.0,62,0.00,,CLR,0.00,VWS V14.01,2013-07-20 15:51:00,
2013-07-20 10:56:00,79.4,64.3,29.86,West,266,3.0,7.0,60,0.00,,CLR,0.00,VWS V14.01,2013-07-20 15:56:00,
2013-07-20 11:00:00,79.9,64.8,29.87,NNW,332,0.0,7.0,60,0.00,,CLR,0.00,VWS V14.01,2013-07-20 16:00:00,
2013-07-20 11:01:00,80.0,64.9,29.87,WSW,252,2.0,2.0,60,0.00,,CLR,0.00,VWS V14.01,2013-07-20 16:01:00,
2013-07-20 11:06:00,79.9,64.8,29.87,West,259,2.0,7.0,60,0.00,,CLR,0.00,VWS V14.01,2013-07-20 16:06:00,
2013-07-20 11:11:00,79.7,64.6,29.88,WNW,288,1.0,7.0,60,0.00,,CLR,0.00,VWS V14.01,2013-07-20 16:11:00,
2013-07-20 11:16:00,79.7,63.6,29.88,NW,312,0.0,7.0,58,0.00,,CLR,0.00,VWS V14.01,2013-07-20 16:16:00,
2013-07-20 11:21:00,79.9,64.3,29.87,NW,304,2.0,7.0,59,0.00,,CLR,0.00,VWS V14.01,2013-07-20 16:21:00,
2013-07-20 11:26:00,79.9,63.3,29.88,WSW,257,5.0,7.0,57,0.00,,CLR,0.00,VWS V14.01,2013-07-20 16:26:00,
2013-07-20 11:30:00,79.9,64.8,29.88,WNW,289,2.0,9.0,60,0.00,,CLR,0.00,VWS V14.01,2013-07-20 16:30:00,
2013-07-20 11:31:00,79.9,64.8,29.88,NW,307,2.0,2.0,60,0.00,,CLR,0.00,VWS V14.01,2013-07-20 16:31:00,
2013-07-20 11:36:00,80.2,66.5,29.87,WSW,253,5.0,6.0,63,0.00,,CLR,0.00,VWS V14.01,2013-07-20 16:36:00,
2013-07-20 11:41:00,80.6,65.4,29.86,SW,228,0.0,0.0,60,0.00,,CLR,0.00,VWS V14.01,2013-07-20 16:41:00,
2013-07-20 11:46:00,80.9,64.8,29.87,NW,304,3.0,5.0,58,0.00,,CLR,0.00,VWS V14.01,2013-07-20 16:46:00,
2013-07-20 11:51:00,81.0,63.8,29.87,West,273,1.0,5.0,56,0.00,,CLR,0.00,VWS V14.01,2013-07-20 16:51:00,
2013-07-20 11:56:00,81.0,65.3,29.87,WNW,300,0.0,5.0,59,0.00,,CLR,0.00,VWS V14.01,2013-07-20 16:56:00,
2013-07-20 12:01:00,80.7,64.6,29.87,WNW,284,1.0,1.0,58,0.00,,CLR,0.00,VWS V14.01,2013-07-20 17:01:00,
2013-07-20 12:06:00,80.5,65.8,29.87,NW,313,0.0,4.0,61,0.00,,CLR,0.00,VWS V14.01,2013-07-20 17:06:00,
2013-07-20 12:11:00,80.5,65.3,29.87,West,281,1.0,4.0,60,0.00,,CLR,0.00,VWS V14.01,2013-07-20 17:11:00,
2013-07-20 12:16:00,80.4,64.3,29.87,West,277,1.0,5.0,58,0.00,,CLR,0.00,VWS V14.01,2013-07-20 17:16:00,
2013-07-20 12:21:00,80.2,64.6,29.87,North,8,0.0,5.0,59,0.00,,CLR,0.00,VWS V14.01,2013-07-20 17:21:00,
2013-07-20 12:26:00,80.4,64.8,29.87,WNW,300,1.0,5.0,59,0.00,,CLR,0.00,VWS V14.01,2013-07-20 17:26:00,
2013-07-20 12:31:00,80.6,65.0,29.86,WSW,258,0.0,1.0,59,0.00,,CLR,0.00,VWS V14.01,2013-07-20 17:31:00,
2013-07-20 12:36:00,80.9,64.8,29.87,NNW,345,0.0,5.0,58,0.00,,CLR,0.00,VWS V14.01,2013-07-20 17:36:00,
2013-07-20 12:41:00,80.7,64.6,29.87,West,281,3.0,6.0,58,0.00,,CLR,0.00,VWS V14.01,2013-07-20 17:41:00,
2013-07-20 12:46:00,80.5,65.3,29.87,West,262,2.0,6.0,60,0.00,,CLR,0.00,VWS V14.01,2013-07-20 17:46:00,
2013-07-20 12:51:00,80.3,64.7,29.87,West,277,0.0,6.0,59,0.00,,CLR,0.00,VWS V14.01,2013-07-20 17:51:00,
2013-07-20 12:56:00,80.3,65.6,29.87,NW,304,0.0,6.0,61,0.00,,CLR,0.00,VWS V14.01,2013-07-20 17:56:00,
2013-07-20 13:01:00,80.7,66.0,29.87,NNW,344,0.0,1.0,61,0.00,,CLR,0.00,VWS V14.01,2013-07-20 18:01:00,
2013-07-20 13:06:00,81.3,66.1,29.87,NW,306,1.0,5.0,60,0.00,,CLR,0.00,VWS V14.01,2013-07-20 18:06:00,
2013-07-20 13:11:00,81.7,65.0,29.87,SSW,205,1.0,5.0,57,0.00,,CLR,0.00,VWS V14.01,2013-07-20 18:11:00,
2013-07-20 13:16:00,82.0,64.3,29.87,SW,235,4.0,8.0,55,0.00,,CLR,0.00,VWS V14.01,2013-07-20 18:16:00,
2013-07-20 13:21:00,82.2,65.5,29.87,NNW,335,0.0,8.0,57,0.00,,CLR,0.00,VWS V14.01,2013-07-20 18:21:00,
2013-07-20 13:27:00,82.0,64.8,29.87,NW,304,2.0,8.0,56,0.00,,CLR,0.00,VWS V14.01,2013-07-20 18:27:00,
2013-07-20 13:32:00,81.9,65.7,29.87,WSW,253,4.0,5.0,58,0.00,,CLR,0.00,VWS V14.01,2013-07-20 18:32:00,
2013-07-20 13:37:00,81.7,62.9,29.86,West,274,5.0,7.0,53,0.00,,CLR,0.00,VWS V14.01,2013-07-20 18:37:00,
2013-07-20 13:42:00,81.2,63.5,29.87,West,266,4.0,7.0,55,0.00,,CLR,0.00,VWS V14.01,2013-07-20 18:42:00,
2013-07-20 13:47:00,81.8,64.1,29.86,WNW,294,1.0,7.0,55,0.00,,CLR,0.00,VWS V14.01,2013-07-20 18:47:00,
2013-07-20 13:52:00,82.2,62.8,29.86,WSW,248,1.0,7.0,52,0.00,,CLR,0.00,VWS V14.01,2013-07-20 18:52:00,
2013-07-20 13:57:00,83.0,65.7,29.86,WNW,292,1.0,7.0,56,0.00,,CLR,0.00,VWS V14.01,2013-07-20 18:57:00,
2013-07-20 14:02:00,83.0,65.2,29.86,WSW,242,0.0,1.0,55,0.00,,BKN110,0.00,VWS V14.01,2013-07-20 19:02:00,
2013-07-20 14:07:00,82.6,63.8,29.86,West,259,0.0,3.0,53,0.00,,BKN110,0.00,VWS V14.01,2013-07-20 19:07:00,
2013-07-20 14:12:00,82.7,63.8,29.85,WNW,289,1.0,6.0,53,0.00,,BKN110,0.00,VWS V14.01,2013-07-20 19:12:00,
2013-07-20 14:17:00,82.8,63.9,29.85,WNW,290,1.0,6.0,53,0.00,,BKN110,0.00,VWS V14.01,2013-07-20 19:17:00,
2013-07-20 14:23:00,83.3,65.5,29.85,NW,316,1.0,6.0,55,0.00,,BKN110,0.00,VWS V14.01,2013-07-20 19:23:00,
2013-07-20 14:28:00,83.7,63.7,29.85,NNE,20,2.0,6.0,51,0.00,,BKN110,0.00,VWS V14.01,2013-07-20 19:28:00,
2013-07-20 14:33:00,83.1,63.1,29.84,NNE,25,0.0,4.0,51,0.00,,BKN110,0.00,VWS V14.01,2013-07-20 19:33:00,
2013-07-20 14:38:00,83.1,63.7,29.84,NE,48,1.0,4.0,52,0.00,,BKN110,0.00,VWS V14.01,2013-07-20 19:38:00,
2013-07-20 14:43:00,83.8,63.2,29.84,NNW,346,1.0,4.0,50,0.00,,BKN110,0.00,VWS V14.01,2013-07-20 19:43:00,
2013-07-20 14:48:00,83.7,63.1,29.84,NNW,333,0.0,4.0,50,0.00,,BKN110,0.00,VWS V14.01,2013-07-20 19:48:00,
2013-07-20 14:53:00,83.8,63.8,29.84,West,269,5.0,7.0,51,0.00,,BKN110,0.00,VWS V14.01,2013-07-20 19:53:00,
2013-07-20 14:58:00,84.2,63.6,29.85,NW,314,2.0,7.0,50,0.00,,CLR,0.00,VWS V14.01,2013-07-20 19:58:00,
2013-07-20 15:03:00,84.3,64.8,29.85,West,274,3.0,4.0,52,0.00,,CLR,0.00,VWS V14.01,2013-07-20 20:03:00,
2013-07-20 15:08:00,84.0,63.9,29.85,West,259,2.0,6.0,51,0.00,,CLR,0.00,VWS V14.01,2013-07-20 20:08:00,
2013-07-20 15:13:00,83.6,61.8,29.85,WNW,302,2.0,8.0,48,0.00,,CLR,0.00,VWS V14.01,2013-07-20 20:13:00,
2013-07-20 15:18:00,83.6,62.4,29.85,NW,316,0.0,8.0,49,0.00,,CLR,0.00,VWS V14.01,2013-07-20 20:18:00,
2013-07-20 15:23:00,83.8,63.8,29.85,North,356,0.0,8.0,51,0.00,,CLR,0.00,VWS V14.01,2013-07-20 20:23:00,
2013-07-20 15:28:00,84.1,61.7,29.85,West,278,3.0,8.0,47,0.00,,CLR,0.00,VWS V14.01,2013-07-20 20:28:00,
2013-07-20 15:33:00,84.0,62.2,29.85,West,266,2.0,7.0,48,0.00,,CLR,0.00,VWS V14.01,2013-07-20 20:33:00,
2013-07-20 15:38:00,83.9,62.1,29.86,WNW,294,1.0,8.0,48,0.00,,CLR,0.00,VWS V14.01,2013-07-20 20:38:00,
2013-07-20 15:44:00,84.1,64.0,29.86,NW,311,0.0,8.0,51,0.00,,CLR,0.00,VWS V14.01,2013-07-20 20:44:00,
2013-07-20 15:49:00,84.0,65.1,29.86,ENE,68,0.0,8.0,53,0.00,,CLR,0.00,VWS V14.01,2013-07-20 20:49:00,
2013-07-20 15:54:00,84.2,66.3,29.85,West,271,3.0,8.0,55,0.00,,CLR,0.00,VWS V14.01,2013-07-20 20:54:00,
2013-07-20 16:00:00,83.8,62.6,29.85,West,263,5.0,8.0,49,0.00,,BKN075,0.00,VWS V14.01,2013-07-20 21:00:00,
2013-07-20 16:05:00,83.5,64.0,29.85,WNW,288,0.0,6.0,52,0.00,,BKN075,0.00,VWS V14.01,2013-07-20 21:05:00,
2013-07-20 16:10:00,83.6,65.2,29.85,North,11,1.0,6.0,54,0.00,,BKN075,0.00,VWS V14.01,2013-07-20 21:10:00,
2013-07-20 16:15:00,83.5,65.1,29.84,NNE,23,1.0,6.0,54,0.00,,BKN075,0.00,VWS V14.01,2013-07-20 21:15:00,
2013-07-20 16:20:00,83.5,64.0,29.84,NNE,15,2.0,6.0,52,0.00,,BKN075,0.00,VWS V14.01,2013-07-20 21:20:00,
2013-07-20 16:25:00,83.5,65.7,29.84,North,360,3.0,6.0,55,0.00,,BKN075,0.00,VWS V14.01,2013-07-20 21:25:00,
2013-07-20 16:30:00,83.5,64.0,29.84,NW,307,0.0,6.0,52,0.00,,BKN075,0.00,VWS V14.01,2013-07-20 21:30:00,
2013-07-20 16:35:00,83.8,63.2,29.84,West,277,1.0,5.0,50,0.00,,BKN075,0.00,VWS V14.01,2013-07-20 21:35:00,
2013-07-20 16:40:00,83.6,63.0,29.84,North,349,0.0,5.0,50,0.00,,BKN075,0.00,VWS V14.01,2013-07-20 21:40:00,
2013-07-20 16:45:00,83.5,64.0,29.84,West,270,0.0,5.0,52,0.00,,BKN075,0.00,VWS V14.01,2013-07-20 21:45:00,
2013-07-20 16:50:00,83.0,61.9,29.83,West,259,0.0,5.0,49,0.00,,BKN075,0.00,VWS V14.01,2013-07-20 21:50:00,
2013-07-20 16:55:00,82.8,62.8,29.83,NW,316,0.0,5.0,51,0.00,,BKN075,0.00,VWS V14.01,2013-07-20 21:55:00,
2013-07-20 17:00:00,82.8,63.4,29.83,West,267,0.0,7.0,52,0.00,,CLR,0.00,VWS V14.01,2013-07-20 22:00:00,
2013-07-20 17:05:00,82.5,62.0,29.83,WSW,254,4.0,7.0,50,0.00,,CLR,0.00,VWS V14.01,2013-07-20 22:05:00,
2013-07-20 17:10:00,82.2,62.3,29.83,North,358,0.0,7.0,51,0.00,,CLR,0.00,VWS V14.01,2013-07-20 22:10:00,
2013-07-20 17:16:00,82.2,63.4,29.82,WSW,250,0.0,7.0,53,0.00,,CLR,0.00,VWS V14.01,2013-07-20 22:16:00,
2013-07-20 17:21:00,82.9,62.9,29.82,WNW,300,0.0,7.0,51,0.00,,CLR,0.00,VWS V14.01,2013-07-20 22:21:00,
2013-07-20 17:27:00,83.4,63.4,29.82,WSW,252,2.0,7.0,51,0.00,,CLR,0.00,VWS V14.01,2013-07-20 22:27:00,
2013-07-20 17:32:00,83.3,61.6,29.82,West,281,0.0,3.0,48,0.00,,CLR,0.00,VWS V14.01,2013-07-20 22:32:00,
2013-07-20 17:37:00,83.5,62.9,29.82,NW,307,1.0,5.0,50,0.00,,CLR,0.00,VWS V14.01,2013-07-20 22:37:00,
2013-07-20 17:42:00,83.7,62.0,29.82,WSW,255,2.0,5.0,48,0.00,,CLR,0.00,VWS V14.01,2013-07-20 22:42:00,
2013-07-20 17:47:00,83.8,63.8,29.82,NE,44,1.0,6.0,51,0.00,,CLR,0.00,VWS V14.01,2013-07-20 22:47:00,
2013-07-20 17:52:00,83.6,63.6,29.82,NNE,27,0.0,6.0,51,0.00,,CLR,0.00,VWS V14.01,2013-07-20 22:52:00,
2013-07-20 17:57:00,83.6,63.0,29.82,WNW,293,2.0,6.0,50,0.00,,CLR,0.00,VWS V14.01,2013-07-20 22:57:00,
2013-07-20 18:02:00,83.3,61.6,29.82,NW,308,1.0,2.0,48,0.00,,CLR,0.00,VWS V14.01,2013-07-20 23:02:00,
2013-07-20 18:07:00,83.5,62.9,29.82,NNW,340,1.0,6.0,50,0.00,,CLR,0.00,VWS V14.01,2013-07-20 23:07:00,
2013-07-20 18:12:00,83.6,63.6,29.82,NNW,340,1.0,6.0,51,0.00,,CLR,0.00,VWS V14.01,2013-07-20 23:12:00,
2013-07-20 18:17:00,83.1,63.1,29.82,NW,312,0.0,6.0,51,0.00,,CLR,0.00,VWS V14.01,2013-07-20 23:17:00,
2013-07-20 18:23:00,83.1,63.1,29.82,West,279,1.0,6.0,51,0.00,,CLR,0.00,VWS V14.01,2013-07-20 23:23:00,
2013-07-20 18:28:00,83.2,62.7,29.82,SW,221,1.0,6.0,50,0.00,,CLR,0.00,VWS V14.01,2013-07-20 23:28:00,
2013-07-20 18:33:00,83.2,63.2,29.81,North,356,0.0,1.0,51,0.00,,CLR,0.00,VWS V14.01,2013-07-20 23:33:00,
2013-07-20 18:38:00,83.3,63.9,29.81,NW,310,0.0,3.0,52,0.00,,CLR,0.00,VWS V14.01,2013-07-20 23:38:00,
2013-07-20 18:43:00,83.2,62.7,29.81,WNW,302,1.0,4.0,50,0.00,,CLR,0.00,VWS V14.01,2013-07-20 23:43:00,
2013-07-20 18:48:00,82.9,62.9,29.81,WSW,256,0.0,4.0,51,0.00,,CLR,0.00,VWS V14.01,2013-07-20 23:48:00,
2013-07-20 18:53:00,82.6,62.7,29.81,NW,326,0.0,4.0,51,0.00,,CLR,0.00,VWS V14.01,2013-07-20 23:53:00,
2013-07-20 18:58:00,82.6,62.7,29.81,WNW,294,0.0,4.0,51,0.00,,CLR,0.00,VWS V14.01,2013-07-20 23:58:00,
2013-07-20 19:03:00,83.1,62.5,29.81,NW,312,0.0,2.0,50,0.00,,CLR,0.00,VWS V14.01,2013-07-21 00:03:00,
2013-07-20 19:08:00,83.0,62.5,29.81,ENE,64,0.0,3.0,50,0.00,,CLR,0.00,VWS V14.01,2013-07-21 00:08:00,
2013-07-20 19:14:00,82.8,63.4,29.81,NE,54,0.0,3.0,52,0.00,,CLR,0.00,VWS V14.01,2013-07-21 00:14:00,
2013-07-20 19:19:00,82.8,62.3,29.81,NW,308,0.0,3.0,50,0.00,,CLR,0.00,VWS V14.01,2013-07-21 00:19:00,
2013-07-20 19:24:00,82.9,62.4,29.81,NW,307,0.0,3.0,50,0.00,,CLR,0.00,VWS V14.01,2013-07-21 00:24:00,
2013-07-20 19:29:00,82.7,62.8,29.82,NW,316,0.0,3.0,51,0.00,,CLR,0.00,VWS V14.01,2013-07-21 00:29:00,
2013-07-20 19:34:00,81.9,62.0,29.81,NW,318,0.0,0.0,51,0.00,,CLR,0.00,VWS V14.01,2013-07-21 00:34:00,
2013-07-20 19:39:00,81.2,62.5,29.81,NW,317,0.0,0.0,53,0.00,,CLR,0.00,VWS V14.01,2013-07-21 00:39:00,
2013-07-20 19:44:00,80.6,62.4,29.81,NW,318,0.0,0.0,54,0.00,,CLR,0.00,VWS V14.01,2013-07-21 00:44:00,
2013-07-20 19:49:00,79.9,61.8,29.82,NNW,338,0.0,1.0,54,0.00,,CLR,0.00,VWS V14.01,2013-07-21 00:49:00,
2013-07-20 19:55:00,79.5,61.9,29.82,North,357,0.0,1.0,55,0.00,,CLR,0.00,VWS V14.01,2013-07-21 00:55:00,
2013-07-20 20:00:00,79.3,62.3,29.82,North,356,0.0,1.0,56,0.00,,CLR,0.00,VWS V14.01,2013-07-21 01:00:00,
2013-07-20 20:05:00,79.0,62.5,29.82,North,356,0.0,0.0,57,0.00,,CLR,0.00,VWS V14.01,2013-07-21 01:05:00,
2013-07-20 20:10:00,78.6,62.1,29.82,North,356,0.0,1.0,57,0.00,,CLR,0.00,VWS V14.01,2013-07-21 01:10:00,
2013-07-20 20:15:00,78.4,62.9,29.83,North,357,0.0,1.0,59,0.00,,CLR,0.00,VWS V14.01,2013-07-21 01:15:00,
2013-07-20 20:20:00,78.0,63.0,29.83,North,356,0.0,1.0,60,0.00,,CLR,0.00,VWS V14.01,2013-07-21 01:20:00,
2013-07-20 20:25:00,77.7,62.7,29.82,North,359,0.0,1.0,60,0.00,,CLR,0.00,VWS V14.01,2013-07-21 01:25:00,
2013-07-20 20:30:00,77.4,62.4,29.83,North,357,0.0,1.0,60,0.00,,CLR,0.00,VWS V14.01,2013-07-21 01:30:00,
2013-07-20 20:35:00,77.2,62.2,29.82,North,357,0.0,0.0,60,0.00,,CLR,0.00,VWS V14.01,2013-07-21 01:35:00,
2013-07-20 20:40:00,76.9,62.4,29.83,North,357,0.0,0.0,61,0.00,,CLR,0.00,VWS V14.01,2013-07-21 01:40:00,
2013-07-20 20:46:00,76.6,62.2,29.83,North,356,0.0,0.0,61,0.00,,CLR,0.00,VWS V14.01,2013-07-21 01:46:00,
2013-07-20 20:51:00,76.3,62.3,29.82,North,356,0.0,0.0,62,0.00,,CLR,0.00,VWS V14.01,2013-07-21 01:51:00,
2013-07-20 20:56:00,75.9,62.4,29.82,North,357,0.0,0.0,63,0.00,,CLR,0.00,VWS V14.01,2013-07-21 01:56:00,
2013-07-20 21:01:00,75.4,62.4,29.82,North,356,0.0,0.0,64,0.00,,CLR,0.00,VWS V14.01,2013-07-21 02:01:00,
2013-07-20 21:06:00,75.0,62.9,29.82,North,357,0.0,0.0,66,0.00,,CLR,0.00,VWS V14.01,2013-07-21 02:06:00,
2013-07-20 21:11:00,75.2,62.6,29.83,North,356,0.0,1.0,65,0.00,,CLR,0.00,VWS V14.01,2013-07-21 02:11:00,
2013-07-20 21:16:00,75.5,62.5,29.83,North,11,0.0,2.0,64,0.00,,CLR,0.00,VWS V14.01,2013-07-21 02:16:00,
2013-07-20 21:22:00,75.4,62.4,29.83,North,11,0.0,2.0,64,0.00,,CLR,0.00,VWS V14.01,2013-07-21 02:22:00,
2013-07-20 21:27:00,75.0,62.5,29.83,North,11,0.0,2.0,65,0.00,,CLR,0.00,VWS V14.01,2013-07-21 02:27:00,
2013-07-20 21:32:00,74.5,62.4,29.83,North,11,0.0,0.0,66,0.00,,CLR,0.00,VWS V14.01,2013-07-21 02:32:00,
2013-07-20 21:37:00,74.1,62.5,29.83,North,11,0.0,0.0,67,0.00,,CLR,0.00,VWS V14.01,2013-07-21 02:37:00,
2013-07-20 21:42:00,73.7,62.1,29.83,North,11,0.0,0.0,67,0.00,,CLR,0.00,VWS V14.01,2013-07-21 02:42:00,
2013-07-20 21:47:00,73.2,62.0,29.83,North,11,0.0,0.0,68,0.00,,CLR,0.00,VWS V14.01,2013-07-21 02:47:00,
2013-07-20 21:52:00,72.8,62.0,29.84,North,11,0.0,0.0,69,0.00,,CLR,0.00,VWS V14.01,2013-07-21 02:52:00,
2013-07-20 21:57:00,72.6,62.3,29.84,North,11,0.0,0.0,70,0.00,,CLR,0.00,VWS V14.01,2013-07-21 02:57:00,
2013-07-20 22:02:00,72.4,62.1,29.84,North,11,0.0,0.0,70,0.00,,CLR,0.00,VWS V14.01,2013-07-21 03:02:00,
2013-07-20 22:07:00,72.4,62.5,29.84,North,11,0.0,0.0,71,0.00,,CLR,0.00,VWS V14.01,2013-07-21 03:07:00,
2013-07-20 22:12:00,72.4,62.5,29.85,North,11,0.0,0.0,71,0.00,,CLR,0.00,VWS V14.01,2013-07-21 03:12:00,
2013-07-20 22:17:00,72.5,63.0,29.86,North,11,0.0,0.0,72,0.00,,CLR,0.00,VWS V14.01,2013-07-21 03:17:00,
2013-07-20 22:23:00,72.5,63.4,29.86,North,11,0.0,0.0,73,0.00,,CLR,0.00,VWS V14.01,2013-07-21 03:23:00,
2013-07-20 22:28:00,72.2,63.1,29.86,North,11,0.0,0.0,73,0.00,,CLR,0.00,VWS V14.01,2013-07-21 03:28:00,
2013-07-20 22:33:00,72.2,63.5,29.86,North,11,0.0,0.0,74,0.00,,CLR,0.00,VWS V14.01,2013-07-21 03:33:00,
2013-07-20 22:39:00,72.5,63.4,29.86,North,11,0.0,0.0,73,0.00,,CLR,0.00,VWS V14.01,2013-07-21 03:39:00,
2013-07-20 22:44:00,72.5,63.4,29.86,North,11,0.0,0.0,73,0.00,,CLR,0.00,VWS V14.01,2013-07-21 03:44:00,
2013-07-20 22:49:00,72.4,63.7,29.86,North,11,0.0,0.0,74,0.00,,CLR,0.00,VWS V14.01,2013-07-21 03:49:00,
2013-07-20 22:54:00,72.2,63.5,29.86,North,11,0.0,0.0,74,0.00,,CLR,0.00,VWS V14.01,2013-07-21 03:54:00,
2013-07-20 22:59:00,72.0,63.7,29.86,North,11,0.0,0.0,75,0.00,,CLR,0.00,VWS V14.01,2013-07-21 03:59:00,
2013-07-20 23:01:00,71.9,63.5,29.86,North,11,0.0,0.0,75,0.00,,CLR,0.00,VWS V14.01,2013-07-21 04:01:00,
2013-07-20 23:06:00,71.7,63.4,29.86,North,11,0.0,0.0,75,0.00,,CLR,0.00,VWS V14.01,2013-07-21 04:06:00,
2013-07-20 23:11:00,71.5,63.5,29.86,North,11,0.0,0.0,76,0.00,,CLR,0.00,VWS V14.01,2013-07-21 04:11:00,
2013-07-20 23:16:00,71.4,63.8,29.86,North,11,0.0,0.0,77,0.00,,CLR,0.00,VWS V14.01,2013-07-21 04:16:00,
2013-07-20 23:21:00,71.3,64.1,29.86,North,11,0.0,0.0,78,0.00,,CLR,0.00,VWS V14.01,2013-07-21 04:21:00,
2013-07-20 23:26:00,71.1,63.9,29.86,North,11,0.0,0.0,78,0.00,,CLR,0.00,VWS V14.01,2013-07-21 04:26:00,
2013-07-20 23:31:00,70.9,64.1,29.86,North,11,0.0,0.0,79,0.00,,CLR,0.00,VWS V14.01,2013-07-21 04:31:00,
2013-07-20 23:36:00,70.8,64.0,29.86,North,11,0.0,0.0,79,0.00,,CLR,0.00,VWS V14.01,2013-07-21 04:36:00,
2013-07-20 23:41:00,70.6,64.1,29.85,North,11,0.0,0.0,80,0.00,,CLR,0.00,VWS V14.01,2013-07-21 04:41:00,
2013-07-20 23:46:00,70.5,64.0,29.85,North,11,0.0,0.0,80,0.00,,CLR,0.00,VWS V14.01,2013-07-21 04:46:00,
2013-07-20 23:51:00,70.4,64.3,29.85,North,11,0.0,0.0,81,0.00,,CLR,0.00,VWS V14.01,2013-07-21 04:51:00,
2013-07-20 23:56:00,70.4,63.9,29.85,North,11,0.0,0.0,80,0.00,,CLR,0.00,VWS V14.01,2013-07-21 04:56:00,